SCP
4 4 4 4 4 4 4 4 5 4 3 2 1 1 1 1 1 1 1 1 1 1 1 1 1 1 1 1 0 0 0 0 0 0 0 0 0 1 1 1 1 1 1
4 4 4 4 4 5 5 4 4 3 2 1 1 1 1 1 1 1 1 1 1 1 1 1 1 1 1 1 1 0 0 0 0 0 0 0 0 0 1 1 1 1 1
4 3 3 4 5 6 6 4 2 2 1 1 1 1 1 1 1 1 1 1 1 1 1 1 1 1 1 1 1 1 0 0 0 0 0 0 0 0 0 1 1 0 0
3 3 3 5 7 7 5 3 2 1 1 1 1 1 1 1 1 1 1 1 1 1 1 1 1 1 1 1 1 1 0 0 0 0 0 0 0 0 0 0 0 0 0
3 3 4 6 7 6 5 3 2 1 1 1 1 1 1 0 1 1 1 1 1 1 1 1 1 1 1 1 1 1 0 0 0 0 0 0 0 0 0 0 0 0 0
3 4 5 5 5 4 4 3 3 2 1 1 1 1 1 1 1 1 1 1 1 0 0 1 1 1 1 1 1 1 0 0 0 0 0 0 0 0 0 0 0 0 0
3 4 4 3 3 3 3 3 3 2 2 1 1 1 1 1 1 1 1 1 1 0 0 0 0 0 0 0 0 0 0 0 0 0 0 0 0 0 0 0 0 0 0
2 2 2 2 2 2 3 3 3 2 2 1 1 1 1 2 2 1 1 1 0 0 0 0 0 0 0 0 0 0 0 0 0 0 0 0 0 0 0 0 0 0 0
2 2 1 1 2 2 2 3 2 2 2 2 2 2 2 2 2 2 1 1 0 0 0 0 0 0 0 0 0 0 0 0 0 0 0 0 0 0 0 0 0 0 0
2 2 1 1 2 2 3 2 2 2 2 2 2 2 2 2 2 2 1 0 0 0 0 0 0 0 0 0 0 0 0 0 0 0 0 0 0 0 0 0 0 0 0
2 2 1 1 2 3 3 3 3 2 2 2 2 2 2 1 1 1 0 0 0 0 0 0 0 0 0 0 0 0 0 0 0 0 0 0 0 0 0 0 0 0 0
2 2 1 1 2 3 4 4 3 3 2 2 1 1 1 1 0 0 0 0 0 0 0 0 0 0 0 0 0 0 0 0 0 0 0 0 0 0 0 0 0 0 0
2 1 1 1 1 3 4 5 4 3 2 2 1 1 0 0 0 0 0 0 0 0 0 0 0 0 0 0 0 0 0 0 0 0 0 0 0 0 0 0 0 0 0
1 1 1 1 1 2 4 5 4 3 2 2 1 1 0 0 0 0 0 0 0 0 0 0 0 0 0 0 0 0 0 0 0 0 0 0 0 0 0 0 0 0 0
1 1 1 1 1 2 4 5 4 3 2 2 1 1 0 0 0 0 0 0 0 0 0 0 0 0 0 0 0 0 0 0 0 0 0 0 0 0 0 0 0 0 0
1 1 1 1 2 3 4 4 4 3 2 2 1 1 0 0 0 0 0 0 0 0 0 0 0 0 0 0 0 0 0 0 0 0 0 0 0 0 0 0 0 0 0
1 1 1 1 2 3 4 4 4 2 2 1 1 1 0 0 0 0 0 0 0 0 0 0 0 0 0 0 0 0 0 0 0 0 0 0 0 0 0 0 0 0 0
0 0 0 1 1 2 3 4 3 2 1 1 1 1 0 0 0 0 0 0 0 0 0 0 0 0 0 0 0 0 0 0 0 0 0 0 0 0 0 0 0 0 0
0 0 0 0 1 1 2 3 2 1 1 1 1 0 0 0 0 0 0 0 0 0 0 0 0 0 0 0 0 0 0 0 0 0 0 0 0 0 0 0 0 0 0
0 0 0 0 0 1 2 2 1 1 1 0 0 0 0 0 0 0 0 0 0 0 0 0 0 0 0 0 0 0 0 0 0 0 0 0 0 0 0 0 0 0 0
0 0 0 0 0 0 1 1 1 1 0 0 0 0 0 0 0 0 0 0 0 0 0 0 0 0 0 0 0 0 0 0 0 0 0 0 0 0 0 0 0 0 0
0 0 0 0 0 0 0 0 0 0 0 0 0 0 0 0 0 0 0 0 0 0 0 0 0 0 0 0 0 0 0 0 0 0 0 0 0 0 0 0 0 0 0
0 0 0 0 0 0 0 0 0 0 0 0 0 0 0 0 0 0 0 0 0 0 0 0 0 0 0 0 0 0 0 0 0 0 0 0 0 0 0 0 0 0 0
0 0 0 0 0 0 0 0 0 0 0 0 0 0 0 0 0 0 0 0 0 0 0 0 0 0 0 0 0 0 0 0 0 0 0 0 0 0 0 0 0 0 0
0 0 0 0 0 0 0 0 0 0 0 0 0 0 0 0 0 0 0 0 0 0 0 0 0 0 0 0 0 0 0 0 0 0 0 0 0 0 0 0 0 0 0
0 0 0 0 0 0 1 1 1 0 0 0 0 0 0 0 0 0 0 0 0 0 0 0 0 0 0 0 0 0 0 0 0 0 0 0 0 0 0 0 0 0 0
Wind_Speed
4 4 5 5 5 4 5 5 5 3 3 2 2 1 1 0 0 0 0 1 1 1 1 0 0 0 0 1 1 1 2 2 1 1 2 2 2 2 2 1 1 2 2
4 4 4 5 5 5 5 4 4 4 3 2 2 1 1 1 0 0 1 1 1 0 0 0 0 0 0 1 1 0 0 1 1 0 1 2 3 2 2 1 1 2 2
8 6 5 4 5 5 5 4 4 4 3 3 2 2 2 1 1 1 1 1 1 1 0 0 0 0 0 1 2 1 1 1 1 0 1 1 2 2 2 2 2 2 2
5 5 6 6 6 5 4 4 4 4 3 3 3 3 2 1 1 1 1 1 1 1 0 1 0 0 0 1 2 1 1 1 1 1 1 2 2 1 2 2 2 2 2
6 7 7 7 6 5 5 4 4 3 3 3 3 3 2 1 1 0 0 1 1 1 1 1 0 1 1 1 2 1 1 1 2 1 1 1 1 2 2 3 3 3 3
6 6 6 5 5 4 4 4 4 3 2 3 3 3 3 2 1 1 1 1 1 1 2 1 1 1 1 2 2 2 2 2 2 2 2 2 2 2 2 3 3 3 3
5 5 6 6 6 5 5 4 4 3 2 2 3 3 3 3 3 2 2 1 1 2 2 2 1 2 2 2 1 2 2 2 2 3 2 2 3 2 2 2 2 3 2
4 5 5 6 6 5 5 4 4 3 3 2 2 2 2 2 2 2 2 2 2 2 2 2 2 2 2 2 1 1 2 2 2 3 3 2 3 2 3 2 2 2 2
3 4 4 5 5 5 5 5 4 3 3 3 3 2 2 2 2 2 2 1 2 2 2 2 2 2 2 2 2 2 3 2 2 3 3 3 2 2 3 3 3 2 2
2 3 3 4 4 4 4 4 4 3 2 3 3 2 2 2 2 2 2 2 2 2 2 2 2 3 3 2 2 2 3 2 3 2 2 2 2 2 2 3 3 3 3
3 3 3 3 3 3 3 3 3 2 2 2 1 1 1 2 2 2 2 2 2 2 2 2 3 3 3 2 2 3 3 3 3 2 2 3 2 2 2 2 2 2 3
2 2 2 3 3 3 3 3 3 3 2 2 1 2 1 1 1 2 2 2 2 2 2 2 2 3 3 2 3 4 4 3 3 3 3 3 2 2 2 2 2 2 3
2 2 2 2 3 3 3 3 3 3 2 2 2 1 1 1 1 2 2 1 1 2 2 2 2 3 3 3 3 4 4 4 3 3 3 4 3 3 2 2 2 2 2
1 1 1 2 2 2 2 2 2 2 2 2 2 2 2 1 1 2 1 1 1 1 2 2 3 3 3 3 4 4 4 3 3 3 3 4 3 3 3 2 2 2 1
1 2 2 2 2 2 2 2 2 2 3 3 2 2 1 1 1 1 1 1 1 1 1 2 3 3 3 3 4 4 3 2 3 3 3 3 3 4 3 3 2 2 1
3 2 2 2 3 3 3 2 3 3 3 3 3 2 1 0 1 1 1 1 1 2 2 2 2 3 3 4 4 3 3 2 2 3 3 3 2 3 3 3 4 4 3
2 2 2 3 4 4 4 4 4 3 3 3 2 2 2 1 1 1 0 1 1 2 2 2 2 3 5 5 4 4 2 2 2 2 3 3 3 3 2 3 3 3 4
2 3 2 3 3 3 4 3 3 3 3 2 2 2 2 2 1 1 1 1 1 1 2 3 3 3 5 5 5 4 2 2 2 3 3 3 4 3 3 2 3 3 3
2 3 3 2 2 3 3 4 3 3 3 3 3 2 2 2 2 2 2 1 1 1 2 2 3 3 5 6 5 3 1 2 3 3 3 2 3 4 3 2 3 4 4
2 2 1 1 1 3 3 4 4 3 4 4 3 2 2 3 3 3 2 1 1 2 2 3 3 3 4 6 6 3 1 2 3 3 3 3 4 5 4 2 2 4 5
2 1 0 1 2 3 4 4 3 4 4 3 2 2 2 2 2 2 1 1 1 1 2 3 4 3 4 5 5 3 1 2 3 3 4 4 4 5 5 4 4 6 5
1 0 0 1 1 2 4 4 4 3 2 2 2 2 2 2 1 1 1 0 1 1 2 3 4 4 4 4 4 4 3 3 3 4 4 4 7 7 7 5 5 7 5
1 1 1 1 1 2 3 4 3 2 2 2 2 1 1 1 1 1 1 1 1 1 2 2 4 5 4 4 5 5 5 4 3 4 6 7 8 7 5 5 6 5 3
2 1 1 2 2 2 2 3 3 3 3 2 2 1 1 1 1 1 1 1 2 2 2 3 3 4 4 4 3 3 3 3 3 3 5 6 6 5 5 5 4 3 3
2 2 2 3 3 2 2 2 3 4 3 2 2 1 1 1 1 2 2 3 4 4 4 4 4 4 5 6 5 4 3 3 3 3 2 2 3 4 4 4 4 3 3
2 2 2 3 3 2 3 2 3 4 4 2 2 1 1 1 1 2 3 4 5 6 7 8 7 5 8 9 9 7 6 5 3 1 2 3 4 4 5 5 5 4 4
Wind_Direction
187 161 160 151 139 136 141 146 145 147 143 137 134 142 151 180 50 294 337 35 13 43 97 57 18 30 347 297 312 308 321 324 325 331 324 319 313 304 292 292 299 314 313
181 176 163 157 156 157 153 148 150 149 149 148 143 147 142 157 159 294 15 47 44 13 136 132 305 42 343 332 334 306 308 317 348 5 342 333 325 322 316 300 280 294 314
191 181 171 168 160 164 164 164 161 151 145 133 113 94 75 52 38 2 346 347 358 345 52 79 42 35 174 270 278 249 193 273 299 250 173 230 276 306 305 299 299 308 312
189 181 175 176 177 176 165 159 155 147 145 139 140 145 150 173 210 214 263 318 329 324 344 354 2 343 262 261 269 239 208 202 260 281 246 229 227 256 298 306 312 315 304
188 187 187 183 169 158 156 151 141 140 147 146 153 149 147 177 199 185 246 296 316 320 310 300 289 265 258 267 273 267 243 218 225 233 246 256 256 228 239 287 311 319 305
181 180 176 160 154 150 147 147 142 145 152 157 165 165 171 180 191 227 253 286 307 314 315 310 290 273 263 271 280 268 253 242 235 231 220 217 230 230 223 252 282 298 299
172 171 167 166 165 162 158 154 155 163 170 182 189 190 189 189 205 214 225 248 281 288 292 302 286 280 273 270 273 276 273 252 246 239 235 228 232 224 215 235 263 275 287
163 169 175 169 168 171 166 163 171 185 184 198 210 206 193 193 214 219 221 229 239 256 275 281 281 283 283 283 282 285 279 264 254 256 250 245 243 222 213 214 228 274 280
172 169 169 165 167 172 175 177 181 191 191 201 201 204 200 205 216 225 228 236 242 251 262 263 273 284 285 279 273 275 279 279 268 262 256 253 250 237 233 225 217 230 268
170 171 172 171 165 168 173 179 186 189 191 207 208 206 211 215 216 211 224 239 246 244 253 263 273 281 288 286 274 275 277 278 276 262 263 266 258 258 248 234 227 224 231
191 183 182 173 162 158 163 173 178 177 186 203 203 211 221 217 220 224 228 237 247 246 252 266 277 286 290 289 276 276 279 276 281 281 269 275 269 265 267 244 226 221 217
177 174 168 155 158 166 173 178 182 186 195 187 174 207 221 223 233 248 254 241 244 257 256 261 278 288 292 294 283 283 285 272 273 278 277 280 278 267 261 247 237 228 217
150 142 145 165 176 178 182 188 187 190 187 174 180 197 225 232 252 267 268 255 245 270 285 283 280 289 290 288 283 276 276 266 258 259 258 266 271 277 274 259 259 250 235
143 159 185 201 199 188 185 193 200 181 175 170 174 193 226 238 260 276 284 271 241 265 287 290 286 288 291 289 287 281 278 271 269 263 256 257 251 255 266 261 258 253 247
211 208 215 214 196 192 195 185 189 179 169 167 182 206 231 245 258 279 307 331 316 278 278 294 301 297 293 286 285 284 283 281 290 292 282 271 264 250 245 243 245 236 238
252 253 255 236 211 204 201 193 192 185 168 174 196 198 180 228 264 289 324 344 333 324 323 307 300 306 302 296 291 291 290 286 287 301 308 301 293 298 294 272 249 224 215
265 265 257 243 225 213 199 198 196 177 173 183 193 179 177 207 243 261 324 306 310 326 324 312 310 309 308 313 315 309 298 295 290 291 301 312 318 321 312 303 290 264 234
273 270 268 264 239 207 192 183 170 167 175 185 196 188 189 209 231 251 278 294 305 300 300 309 310 305 307 315 317 318 316 305 302 293 281 284 301 313 317 310 312 299 279
250 257 251 255 229 201 184 165 167 167 174 194 209 207 198 203 215 236 257 272 294 302 298 303 308 308 309 316 316 319 326 312 306 302 293 281 290 302 317 310 306 307 302
268 270 281 315 211 198 168 165 177 178 198 209 212 207 195 198 216 235 242 242 244 270 297 307 304 299 301 310 312 311 298 304 305 310 304 287 280 290 303 281 278 291 295
272 273 247 196 220 188 161 171 184 203 213 203 191 185 195 211 224 233 223 239 269 303 310 306 305 302 296 304 309 304 264 266 290 299 302 298 297 294 294 283 259 260 275
302 283 202 247 221 182 169 179 206 216 188 168 175 192 213 227 226 204 246 239 224 294 305 311 314 309 303 302 310 308 282 257 257 277 287 293 301 301 297 289 271 273 276
281 286 217 248 242 203 190 198 216 186 162 158 180 202 207 229 213 190 224 272 259 264 289 300 303 307 310 306 305 305 299 287 259 273 284 295 301 303 298 287 287 286 271
273 265 201 226 239 232 220 212 206 172 160 171 194 205 199 238 267 237 219 228 247 256 271 280 288 296 300 300 306 307 304 302 289 290 296 298 296 289 283 293 297 280 258
266 248 225 230 237 234 239 217 187 167 169 180 195 207 205 210 253 266 241 232 240 225 230 251 256 271 289 287 286 288 293 293 290 305 306 316 324 325 320 313 302 290 279
244 249 241 237 235 222 235 216 180 170 170 182 197 204 218 232 241 270 303 277 252 260 248 244 247 260 261 281 296 298 290 288 283 271 285 298 300 299 300 303 304 297 284